Вернуться в каталог

UTE-GALAPAGOS

АктивенЛюбительское радиоSSO
NORAD 67279·PAYLOAD·🇪🇨 Ecuador
Это название спутника еще не подтверждено официальными источниками.

Запущен Dec 28, 2025 с Vostochny Cosmodrome

Loading…

Ближайшие Пролёты (ближайшие 24 часа)

TLE

СвежийSource: Space-Track

Эпоха: Sep 14, 2026, 11:24 UTC

1 67279U 25313AH  26257.47556711  .00005468  00000-0  22907-3 0  9999
2 67279  97.3850 330.7088 0014915  54.6027 305.6601 15.23844787 39549

Отслеживайте UTE-GALAPAGOS в реальном времени с AllMySat

Download on the App Store